This demonstration page uses our WeatherBlox Daily Observations layout. Learn more.

Left ArrowRight Arrow

Hourly Observations for October 1, 2019

Temp ( °F °C ) Dew Point ( °F °C ) Humidity (%) Winds ( mph kmh ) Pressure ( in mb ) Visibility ( mi km ) Precip ( " mm )
12:59 am 00:59 Cloudy 70 21.1 61 16.1 73 73 ESE 5 7 30.17 1022 10 16 0.00 0.00
1:59 am 01:59 Cloudy 71 21.7 61 16.1 71 71 Calm 30.16 1021 10 16 0.00 0.00
2:59 am 02:59 Cloudy 68 20 61 16.1 78 78 Calm 30.15 1021 10 16 0.00 0.00
3:59 am 03:59 Mostly Cloudy 68 20 61 16.1 78 78 Calm 30.14 1021 10 16 0.00 0.00
4:59 am 04:59 Mostly Cloudy 66 18.9 62 16.7 87 87 Calm 30.14 1021 10 16 0.00 0.00
5:59 am 05:59 Mostly Cloudy 67 19.4 63 17.2 87 87 Calm 30.15 1021 10 16 0.00 0.00
6:59 am 06:59 Mostly Cloudy 69 20.6 64 17.8 84 84 Calm 30.16 1021 10 16 0.00 0.00
7:59 am 07:59 Mostly Cloudy 70 21.1 67 19.4 90 90 Calm 30.16 1022 10 16 0.00 0.00
8:59 am 08:59 Cloudy 72 22.2 66 18.9 82 82 Calm 30.17 1022 10 16 0.00 0.00
9:59 am 09:59 Cloudy 73 22.8 65 18.3 76 76 ESE 5 7 30.17 1022 10 16 0.00 0.00
10:59 am 10:59 Cloudy 74 23.3 65 18.3 74 74 Calm 30.17 1022 10 16 0.00 0.00
11:59 am 11:59 Cloudy 76 24.4 64 17.8 67 67 SW 5 7 30.15 1021 10 16 0.00 0.00
12:59 pm 12:59 Mostly Cloudy 79 26.1 65 18.3 62 62 NNW 7 11 30.14 1021 10 16 0.00 0.00
1:59 pm 13:59 Mostly Cloudy 80 26.7 67 19.4 64 64 ENE 6 9 30.11 1020 10 16 0.00 0.00
2:25 pm 14:25 Partly Cloudy 79 26.1 67 19.4 67 67 VRB 3 6 30.10 1019 10 16 0.00 0.00
2:59 pm 14:59 Partly Cloudy 82 27.8 67 19.4 60 60 NNE 6 9 30.10 1019 10 16 0.00 0.00
3:59 pm 15:59 Mostly Sunny 81 27.2 68 20 65 65 NE 7 11 30.07 1018 10 16 0.00 0.00
4:59 pm 16:59 Mostly Sunny 81 27.2 68 20 65 65 NNE 5 7 30.06 1018 10 16 0.00 0.00
5:59 pm 17:59 Mostly Sunny 80 26.7 68 20 67 67 NNE 3 6 30.06 1018 10 16 0.00 0.00
6:59 pm 18:59 Mostly Clear 74 23.3 69 20.6 85 85 SSE 3 6 30.06 1018 10 16 0.00 0.00
7:59 pm 19:59 Mostly Clear 75 23.9 63 17.2 66 66 SSE 8 13 30.06 1018 10 16 0.00 0.00
8:59 pm 20:59 Clear 73 22.8 62 16.7 69 69 S 5 7 30.06 1018 10 16 0.00 0.00
9:59 pm 21:59 Clear 72 22.2 63 17.2 73 73 S 5 7 30.06 1018 10 16 0.00 0.00
10:59 pm 22:59 Clear 72 22.2 61 16.1 68 68 S 6 9 30.04 1017 10 16 0.00 0.00
11:59 pm 23:59 Clear 71 21.7 62 16.7 73 73 S 6 9 30.04 1017 10 16 0.00 0.00

Powered by AerisWeather